7 * 24
多渠道服务支持
STARLINK-34393 是 SpaceX Starlink 卫星互联网项目中的一颗低轨道卫星,属于第三代 Starlink(也称 Starlink V1.5 或 V2)系列。该卫星于2023年发射,旨在为全球提供高速、低延迟的宽带互联网服务。它运行在约 550 公里的轨道高度,配备先进通信设备和激光链路,以提升网络性能和连接稳定性。Starlink 项目致力于为偏远和网络基础设施不足的地区提供可靠互联网接入。
美国
(US)
| 数据来源 | 国际轨道数据 |
| 星历时间: | 2025-11-08T21:59:52+0800 22小时前 查看轨道信息 |
| 半长轴: | 6853.301km |
| 偏心率: | 0.0001368 |
| 轨道倾角: | 53.160° |
| 近地点辐角 | 98.757° |
| 升交点赤经 | 23.309° |
| 平近点角 | 261.358° |
| 近地点: | 474.228km |
| 远地点: | 476.104km |
| 周期: | 94.104分钟 |
| 每日圈数: | 15.302173 |